Lapse_Rate
6.6 6.6 6.5 6.4 6.4 6.2 6.5 6.5 6.5 6.6 6.5 6.3 6.5 6.7 6.5 6.3 6.3 6.5 6.4 5.9 5.8 5.8 6.1 6.0 6.1 6.4 6.8 6.8 6.6 6.4 6.1 6.4 6.4 6.5 6.6 6.7 6.4 6.5 6.2 6.6 7.2 7.4 7.4 7.2 7.0 7.1 7.0
6.6 6.6 6.6 6.6 6.4 6.4 6.2 6.4 6.5 6.5 6.6 6.4 6.4 6.5 6.5 6.4 6.2 6.5 6.6 6.6 6.5 6.2 6.3 6.4 6.4 6.8 7.0 6.9 6.7 6.4 6.3 6.4 6.5 6.6 6.5 6.7 6.5 6.5 6.8 7.5 7.4 7.5 7.2 6.9 6.9 7.0 6.9
6.7 6.6 6.6 6.6 6.6 6.6 6.4 6.3 6.3 6.4 6.5 6.6 6.3 6.4 6.7 6.5 6.3 6.5 6.7 6.9 7.3 6.6 6.7 6.5 6.8 6.9 7.1 6.8 6.7 6.5 6.4 6.4 6.5 6.5 6.5 6.5 6.5 6.7 6.8 7.4 7.3 7.1 7.0 6.8 6.8 6.9 6.8
7.0 6.9 6.9 6.7 6.6 6.5 6.6 6.4 6.4 6.3 6.5 6.5 6.5 6.5 6.5 6.7 6.4 6.5 6.6 7.3 7.0 7.1 6.8 6.6 6.7 6.9 7.1 6.8 6.7 6.3 6.3 6.4 6.4 6.5 6.5 6.4 6.7 6.7 7.1 7.2 7.5 7.1 6.8 6.5 6.9 6.9 6.8
7.1 7.0 6.9 6.8 6.7 6.6 6.6 6.4 6.3 6.4 6.2 6.5 6.6 6.4 6.7 6.6 6.6 6.5 6.6 6.9 7.1 7.2 7.4 7.0 6.7 7.1 7.0 6.8 6.6 6.3 6.4 6.5 6.5 6.4 6.3 6.4 6.5 6.8 6.9 7.4 7.1 6.9 6.6 6.6 6.8 6.8 6.8
6.8 6.8 6.9 6.9 7.0 7.0 6.7 6.7 6.5 6.3 6.5 6.2 6.5 6.6 6.5 6.7 6.7 6.7 6.5 6.7 6.8 6.9 7.1 7.0 6.8 6.8 6.7 6.7 6.6 6.5 6.7 6.7 6.7 6.6 6.5 6.3 6.3 6.3 6.8 7.3 6.7 6.9 6.8 6.8 6.8 6.8 6.8
6.9 6.9 6.8 7.0 7.0 7.0 7.4 6.9 6.6 6.6 6.3 6.4 6.3 6.5 6.5 6.6 6.7 6.7 6.7 6.4 6.6 6.8 6.9 7.0 6.7 6.5 6.6 6.7 6.7 6.8 6.9 6.9 6.9 6.8 6.7 6.2 6.1 6.7 7.1 7.1 6.8 6.8 6.6 6.7 6.7 6.6 6.5
6.6 6.7 6.8 6.8 7.0 7.2 7.3 7.4 7.2 6.7 6.6 6.3 6.3 6.4 6.5 6.6 6.7 6.9 6.5 6.5 6.7 6.7 6.9 7.1 6.7 6.5 6.6 7.0 7.0 7.2 7.3 7.1 7.0 7.0 7.0 6.6 6.5 7.1 7.1 6.4 6.4 6.5 6.4 6.5 6.5 6.4 6.2
6.6 6.6 6.6 6.7 6.7 6.8 6.9 7.1 7.5 7.3 6.7 6.5 6.3 6.3 6.5 6.5 6.7 6.7 6.8 6.3 6.3 6.7 6.8 7.1 6.9 6.7 7.1 7.2 7.4 7.5 7.4 7.4 7.3 7.1 7.1 6.9 7.2 7.2 7.1 6.2 6.4 6.4 6.3 6.4 6.3 6.2 6.0
6.5 6.6 6.5 6.4 6.3 6.5 6.6 6.6 6.8 7.2 7.3 6.7 6.4 6.2 6.3 6.4 6.5 6.5 6.8 6.6 6.3 6.1 6.5 7.2 7.3 7.2 7.3 7.3 7.4 7.4 7.2 7.1 7.1 7.1 6.9 6.5 6.6 6.7 6.7 6.2 6.4 6.4 6.3 6.1 6.0 5.9 5.7
6.5 6.6 6.6 6.7 6.4 6.1 6.2 6.5 6.5 6.6 6.9 7.0 6.6 6.3 6.1 6.3 6.3 6.5 6.4 6.5 6.3 5.9 4.2 6.9 7.0 7.2 7.2 7.1 7.1 7.2 7.0 6.9 7.0 7.1 6.6 6.5 6.4 6.5 6.5 6.4 6.2 6.1 6.1 6.0 5.9 5.7 5.4
6.3 6.3 6.6 6.7 6.7 6.6 6.2 6.1 6.4 6.4 6.3 6.7 6.9 6.4 6.1 6.0 6.3 6.4 6.3 6.2 6.1 5.9 4.7 6.4 6.6 6.9 7.0 6.9 6.9 6.9 6.7 6.7 6.6 6.6 6.5 6.3 6.4 6.1 6.1 6.3 5.9 6.0 5.9 5.7 5.6 5.4 4.0
6.4 6.3 6.3 6.3 6.2 6.3 6.0 5.8 5.8 6.1 6.3 6.1 6.5 6.6 6.3 5.9 6.1 6.3 6.3 5.8 5.8 5.3 6.5 6.4 6.4 6.5 6.6 6.6 6.7 6.5 6.6 6.5 6.6 6.1 5.9 5.9 5.9 5.9 5.9 6.0 5.7 5.8 5.9 5.1 4.3 3.2 3.2
5.4 5.2 5.2 5.2 5.3 5.4 5.5 5.6 5.6 5.6 5.8 6.1 6.0 6.3 6.5 6.1 5.6 5.7 6.3 5.6 5.3 6.3 6.9 6.7 6.5 6.3 6.2 6.3 6.2 6.3 6.3 6.3 6.2 6.5 6.4 6.1 5.5 6.0 5.8 5.8 6.2 5.8 6.0 6.3 4.1 3.1 3.1
5.2 5.1 5.0 5.0 4.9 4.8 5.0 4.7 4.7 4.9 5.1 5.5 5.8 5.8 6.3 6.2 5.6 5.3 5.6 5.2 5.5 6.3 6.8 6.8 6.6 6.2 5.9 6.0 6.0 6.0 6.0 6.3 6.6 6.5 6.6 6.3 6.2 5.9 5.9 5.8 5.8 5.4 5.4 5.9 5.5 4.2 3.9
4.7 4.5 4.2 4.1 3.8 4.1 4.1 4.1 3.9 4.0 4.2 4.4 5.6 5.5 6.0 6.3 5.9 5.1 4.9 5.7 5.9 6.5 6.8 7.0 7.0 6.7 6.6 6.3 6.0 5.9 6.0 6.3 6.4 6.4 6.3 6.5 6.3 5.6 5.5 5.4 5.4 5.7 5.9 5.5 5.6 3.4 4.3
4.3 4.1 3.7 3.4 3.1 2.4 2.5 2.8 3.0 3.4 4.0 4.7 5.3 5.4 5.8 6.2 6.0 5.0 4.5 5.4 6.2 6.6 6.6 6.8 6.9 6.7 6.5 6.5 6.3 6.2 6.2 6.5 6.6 6.4 6.2 6.2 6.5 5.1 5.1 5.2 5.7 5.4 5.3 5.8 5.9 5.6 3.3
3.8 3.8 3.6 3.1 2.6 2.3 2.2 3.0 3.7 4.5 5.5 6.1 5.9 5.6 5.9 6.2 5.8 5.4 4.8 5.7 6.0 6.6 6.7 6.5 6.6 6.7 6.8 6.8 6.5 6.3 6.4 6.9 6.8 6.6 6.5 6.4 6.3 5.9 5.4 5.6 5.5 5.3 5.8 6.1 6.2 4.8 4.9
3.6 3.3 3.4 3.3 3.0 3.1 3.7 5.0 5.5 6.1 6.2 6.9 6.7 6.1 5.9 6.2 5.8 5.5 5.7 5.7 5.7 6.2 6.6 6.7 6.5 6.7 6.6 6.7 6.5 6.6 6.6 6.8 7.0 7.0 6.7 6.5 6.0 5.3 4.7 5.0 5.2 5.4 5.8 5.9 6.2 5.9 5.3
2.5 3.0 2.9 3.5 4.3 4.8 5.2 5.3 5.6 6.0 6.9 6.6 6.2 6.4 6.2 5.9 6.1 6.0 6.3 6.0 5.8 6.2 6.5 6.5 6.6 6.4 6.5 6.5 6.6 7.0 6.6 6.9 6.8 6.9 6.5 6.5 6.5 6.9 6.1 7.2 7.1 6.0 6.7 6.4 6.1 5.4 5.8
3.1 3.6 4.0 4.5 5.4 5.4 5.4 5.6 6.0 5.9 6.0 6.0 5.9 6.3 6.6 5.8 5.9 6.1 6.7 6.5 5.7 5.8 6.2 6.5 6.3 6.3 6.6 6.6 6.5 6.5 6.7 6.7 6.8 6.7 6.5 6.1 6.4 6.7 6.8 6.9 6.9 6.9 7.0 6.6 6.1 6.5 6.2
4.7 4.7 5.1 5.2 5.2 5.6 5.7 5.9 6.0 6.0 6.5 6.2 5.9 6.5 6.6 6.3 6.5 6.3 6.7 7.1 6.2 6.3 6.1 6.3 6.5 7.2 6.9 6.7 7.0 7.1 6.9 6.8 7.0 6.9 6.7 6.3 6.4 6.8 6.6 6.5 6.5 6.5 6.3 6.3 6.2 6.4 6.3
5.5 5.7 5.7 5.5 5.4 5.4 5.7 6.2 6.5 5.7 5.9 5.7 5.5 6.1 6.4 6.3 6.2 6.0 6.7 7.2 7.3 6.5 6.6 6.7 6.8 6.5 6.8 7.2 7.0 6.9 6.8 6.8 6.5 6.8 6.9 6.5 6.4 6.5 6.0 6.3 6.2 5.3 6.2 6.6 6.8 6.7 6.9
5.9 6.1 5.9 5.7 5.5 5.5 5.6 5.9 5.2 5.7 5.9 5.8 5.9 5.8 6.0 6.3 6.3 6.1 6.3 6.9 7.1 7.1 6.5 6.4 6.5 6.6 6.5 6.7 6.6 6.6 6.8 6.7 6.6 6.4 6.4 6.3 6.5 6.3 6.3 5.9 3.9 5.9 6.1 6.6 6.6 6.7 6.6
6.2 6.1 6.0 5.9 5.8 5.6 5.5 5.5 5.3 5.5 6.1 6.1 6.0 5.8 5.9 6.0 6.2 6.0 5.7 6.1 6.7 7.0 6.9 6.3 6.2 6.5 6.7 6.4 6.4 6.1 5.9 6.0 6.2 6.5 6.6 6.6 6.5 6.1 6.0 5.2 5.8 5.1 5.8 6.6 6.5 6.7 6.8
6.5 6.3 6.3 6.0 5.8 5.9 5.6 5.5 5.4 5.3 5.6 5.6 5.7 5.8 5.7 5.8 6.0 6.2 6.2 5.9 5.8 5.9 6.4 7.0 6.4 6.4 6.8 6.5 6.3 6.1 6.3 5.9 5.8 5.5 5.7 5.8 6.1 6.1 5.4 5.5 4.5 5.8 6.5 6.5 6.3 6.0 6.7
6.8 6.6 6.5 6.2 5.9 6.0 5.8 5.6 5.1 5.1 5.4 5.4 5.5 5.5 5.5 5.5 5.9 6.4 6.4 6.0 5.7 5.7 5.6 6.5 6.9 6.8 6.7 6.5 6.4 6.3 6.3 6.2 6.2 5.7 5.7 5.8 5.9 6.1 6.1 5.9 5.7 5.5 5.6 5.8 5.6 6.3 6.6
7.1 6.8 6.7 6.4 6.0 5.9 6.0 5.8 5.2 5.4 5.5 5.7 5.9 5.7 5.2 5.5 6.1 6.1 6.2 6.2 6.1 5.7 5.4 5.4 6.0 5.9 6.5 6.5 6.3 6.3 6.3 6.3 6.2 6.0 6.0 6.5 6.1 5.8 5.6 5.4 4.8 5.4 5.8 6.2 6.3 6.4 6.0
7.3 7.1 6.8 6.6 6.1 5.9 5.9 5.7 5.6 5.5 5.5 5.5 6.1 5.8 5.5 5.5 5.6 5.9 6.1 6.1 6.2 6.0 5.4 5.1 5.3 5.9 6.1 6.1 6.1 6.2 6.3 6.2 6.1 6.3 6.2 6.4 6.3 6.4 6.2 5.9 5.9 5.8 6.0 5.9 6.0 5.7 5.6
Wind_Speed
17 18 17 17 18 18 17 17 17 15 12 13 12 11 12 12 13 10 15 13 11 9 7 5 6 11 5 2 7 1 1 7 7 7 6 6 7 7 9 7 5 4 3 3 2 5 5
18 18 19 19 18 18 18 18 18 18 15 13 14 12 12 12 13 11 13 14 12 9 6 4 4 11 2 4 3 1 2 5 6 6 5 6 7 9 7 6 4 3 4 3 2 3 3
19 19 19 20 20 20 19 18 17 19 19 16 13 14 12 12 12 12 14 12 11 9 5 3 6 3 1 9 1 4 5 5 6 4 5 4 3 4 5 6 5 5 4 2 1 2 2
21 22 22 22 22 22 22 20 19 17 19 17 16 14 13 12 13 13 13 13 11 13 5 1 5 2 5 2 0 1 2 3 3 2 2 1 3 5 2 6 7 5 5 1 0 5 0
22 23 23 23 24 24 24 24 22 21 20 20 17 16 13 12 12 13 13 14 11 9 4 4 3 3 7 4 2 2 2 5 4 2 2 2 5 4 3 6 4 6 2 4 2 6 3
22 22 24 23 24 25 25 26 26 23 21 21 20 18 14 13 11 14 13 12 3 2 1 2 1 3 4 4 3 2 1 4 3 5 3 5 5 3 2 5 5 6 4 3 3 5 2
21 21 22 23 24 23 24 25 26 27 24 22 23 17 17 13 10 10 7 2 3 1 3 6 5 4 2 1 1 2 1 3 3 6 4 2 3 4 6 6 4 6 3 3 1 4 4
23 22 22 21 22 23 24 24 24 26 27 26 22 23 14 14 12 7 1 3 4 2 3 6 3 3 2 4 3 0 1 4 3 4 2 5 4 4 8 4 4 4 3 3 1 3 3
29 28 27 25 24 23 22 22 23 24 25 26 26 22 21 14 14 2 3 4 1 0 1 4 5 4 4 4 3 6 4 2 4 4 4 6 3 7 6 5 6 3 5 4 2 2 1
28 29 29 29 30 28 24 21 21 22 21 22 23 25 22 22 1 2 2 2 3 1 3 4 5 4 3 3 1 2 4 2 2 8 7 3 2 5 5 5 5 5 5 5 6 4 4
30 30 29 30 32 33 29 25 22 21 21 20 21 23 23 16 2 2 1 5 2 3 3 2 2 2 3 5 6 2 1 3 7 5 7 6 8 6 4 3 4 3 4 5 3 4 2
32 28 27 29 32 33 36 34 26 22 19 20 19 20 21 3 3 3 4 3 4 5 6 5 4 6 6 3 2 3 3 4 4 5 5 2 1 0 3 4 2 9 6 7 4 3 1
29 30 29 30 31 33 34 35 36 29 21 17 20 20 14 5 4 6 5 3 4 4 1 5 5 5 4 5 3 5 6 5 7 5 4 2 1 1 3 7 5 3 5 3 3 2 5
30 30 33 32 31 33 32 31 37 38 28 18 16 22 11 9 8 7 3 4 4 4 7 2 5 4 8 7 5 6 7 6 5 5 4 6 3 8 4 4 7 6 6 5 7 4 3
32 32 33 31 29 32 32 32 35 35 39 17 12 2 3 4 14 2 4 3 9 8 6 10 3 5 5 5 5 4 8 6 9 10 7 6 2 1 2 2 3 6 4 4 7 2 3
30 32 32 33 31 32 33 34 34 39 39 14 0 3 5 8 16 2 3 10 8 7 7 3 10 4 9 9 7 8 9 5 7 10 3 7 5 1 1 2 3 2 5 4 3 3 4
32 33 34 34 32 34 35 36 33 37 40 11 3 2 2 9 4 1 6 8 7 7 7 8 9 5 6 8 8 7 7 3 6 6 4 6 4 2 2 6 8 3 2 4 4 3 5
32 33 34 35 36 32 35 37 29 35 55 11 4 3 2 3 5 3 4 7 6 5 4 5 5 3 9 9 8 7 12 5 8 10 10 6 6 4 5 1 2 2 6 6 4 5 2
30 33 34 33 34 34 31 35 38 30 28 7 4 4 2 3 8 6 4 6 6 5 6 9 9 7 4 8 4 8 7 2 8 8 10 8 2 4 5 4 3 5 6 4 5 3 6
30 30 33 33 31 32 32 31 37 29 31 12 4 5 4 4 2 6 6 6 6 4 5 4 6 5 4 5 3 7 6 1 4 4 4 7 4 6 8 5 6 6 7 6 6 4 5
29 30 30 32 34 34 31 33 32 37 33 9 3 3 2 8 13 12 6 6 7 6 3 5 2 6 8 6 5 5 3 2 3 4 3 4 5 4 2 3 4 4 7 11 8 6 6
29 30 31 32 33 33 33 34 33 34 32 4 3 2 1 2 2 17 11 7 9 4 8 5 5 9 6 7 9 10 8 5 6 2 5 1 3 3 3 2 5 2 4 10 8 1 6
28 28 30 30 32 32 33 31 33 30 21 3 3 6 3 2 3 5 12 21 8 5 6 5 11 6 7 7 3 1 4 6 7 9 6 6 6 3 3 2 4 4 10 10 5 5 6
28 28 29 29 31 30 31 31 32 28 23 4 4 5 4 3 6 5 3 9 16 13 8 2 5 7 3 13 11 10 10 10 9 7 4 6 6 3 3 2 2 3 2 3 5 4 5
29 28 28 28 29 30 30 30 31 30 33 7 4 2 3 4 7 12 5 2 5 2 6 6 2 2 9 5 4 4 3 2 4 6 4 3 6 2 5 4 4 1 5 7 8 6 7
31 30 29 27 28 29 29 28 29 30 28 10 5 6 4 3 3 5 11 1 1 3 1 2 2 2 1 3 3 6 5 5 5 2 4 3 3 4 4 5 8 3 2 4 3 4 8
32 32 29 26 26 27 29 28 28 29 30 13 6 4 4 3 2 4 2 9 5 2 3 1 4 2 1 3 3 3 4 4 6 9 6 3 2 4 3 2 5 4 5 3 5 4 9
31 31 28 26 24 26 27 27 28 27 29 16 7 9 4 3 3 3 5 2 3 3 4 2 3 1 2 2 3 4 3 5 4 5 5 6 6 3 3 2 7 4 4 8 4 5 10
30 28 27 25 24 25 25 28 29 28 29 27 5 7 8 3 0 2 3 5 3 3 2 2 1 2 4 3 2 3 3 2 5 4 2 2 4 5 3 2 3 4 1 4 2 11 5
Wind_Direction
4 3 2 1 357 355 356 354 349 342 341 329 324 320 316 312 306 314 303 312 311 313 316 317 219 150 124 196 252 343 301 201 150 141 183 181 145 153 171 176 148 170 168 77 98 88 91
3 1 357 356 357 355 353 353 349 342 338 331 325 322 316 313 309 310 299 310 313 310 314 316 190 155 91 240 211 32 293 144 164 162 198 193 193 198 149 142 142 128 95 109 91 98 88
0 359 359 355 354 352 352 351 351 343 340 334 327 324 316 311 308 304 299 304 306 300 320 342 164 140 216 239 117 327 207 184 175 180 172 219 213 208 151 113 138 118 79 30 157 143 109
-0 358 357 355 352 350 348 349 348 347 341 339 329 324 319 314 309 305 301 302 303 310 324 330 144 90 250 244 334 161 183 122 140 172 171 206 135 109 85 128 41 67 57 101 221 128 147
355 354 355 354 353 350 347 345 347 346 344 340 335 328 323 315 311 305 298 295 292 293 284 125 92 89 275 344 201 198 171 153 135 82 84 106 69 87 20 85 43 14 198 207 305 193 125
354 352 348 348 348 348 348 346 343 344 345 342 338 331 325 320 317 306 301 290 313 12 50 98 0 40 288 226 179 151 136 120 128 123 75 48 57 108 59 91 194 189 207 224 215 215 186
342 345 346 343 341 342 343 345 343 340 341 343 340 337 326 324 323 324 338 68 37 313 206 191 193 227 170 233 168 58 160 101 89 62 134 9 73 187 173 168 126 130 165 175 226 184 149
333 331 331 333 336 336 338 340 342 340 339 338 342 336 333 323 320 324 50 246 208 191 254 217 222 231 191 194 107 268 108 109 114 125 105 41 221 221 120 152 121 135 144 205 342 147 145
355 351 339 329 321 322 325 329 333 336 337 336 334 340 328 325 317 102 192 260 118 99 196 210 195 174 190 147 157 190 131 118 105 107 140 152 300 132 113 149 140 152 168 185 175 137 94
352 351 345 345 338 320 313 313 319 325 329 331 331 332 337 324 338 267 231 108 316 16 37 213 207 227 112 118 107 152 187 124 88 163 135 207 125 142 123 182 135 173 183 143 133 108 221
344 344 348 347 347 342 322 305 304 310 317 322 325 329 331 325 241 171 275 103 40 30 349 187 151 140 135 151 138 241 121 57 154 140 116 227 169 161 161 192 165 184 113 108 92 98 47
348 343 342 346 347 346 343 334 298 296 302 310 317 321 330 304 279 207 123 86 65 38 258 177 134 163 133 165 160 133 130 62 137 100 50 91 304 150 134 66 64 150 80 51 57 78 0
344 343 341 339 338 340 340 340 340 300 291 297 308 312 313 277 241 154 118 56 43 163 332 194 181 164 163 155 165 162 163 170 154 119 180 45 197 298 132 84 9 77 102 29 6 4 219
341 338 336 333 335 333 334 338 341 331 290 284 302 311 276 217 228 170 96 61 199 221 215 111 131 110 173 160 198 170 137 192 222 102 128 150 238 175 184 184 174 191 166 156 195 191 230
342 335 337 333 330 333 332 333 340 329 323 271 320 292 266 234 203 162 101 143 205 199 170 157 86 130 220 202 151 145 189 204 197 173 163 148 177 44 60 132 134 191 189 148 106 10 49
344 341 335 340 337 332 333 331 336 336 327 257 201 278 244 181 155 108 113 222 210 189 137 161 182 163 175 185 153 173 175 204 201 183 167 196 111 342 188 149 37 151 154 86 356 141 235
341 343 342 338 336 340 334 332 332 339 316 245 129 278 289 136 113 182 208 225 208 199 150 165 203 154 198 177 174 187 198 252 181 164 137 144 106 273 126 209 174 137 184 62 118 134 167
344 341 341 342 337 332 337 337 332 336 322 178 163 200 173 131 178 192 222 200 196 184 151 186 138 149 175 169 173 210 204 228 161 147 162 193 117 145 204 286 175 172 178 160 136 204 100
340 342 340 338 337 336 333 337 339 336 345 306 192 188 166 138 203 212 264 265 210 153 187 166 201 199 183 167 187 202 192 317 165 156 159 185 183 95 359 353 344 212 197 144 110 85 191
335 335 337 335 334 338 336 336 335 339 343 336 274 173 180 195 211 193 176 226 219 220 167 164 162 136 136 184 249 183 192 89 186 177 138 99 138 160 185 187 133 186 183 169 133 130 180
333 333 330 335 335 338 340 337 332 339 345 324 228 260 189 193 216 214 190 181 183 193 220 178 181 204 166 159 142 179 136 106 38 153 77 127 173 142 71 111 121 147 168 171 186 184 169
330 331 332 330 333 338 339 338 339 334 353 318 277 236 308 244 158 201 211 202 187 206 152 214 205 195 190 163 183 188 143 183 185 157 147 35 167 102 9 36 45 104 134 184 213 171 268
326 328 328 330 329 333 338 336 340 341 353 299 334 295 277 229 161 174 218 219 182 162 221 178 196 128 178 219 170 33 112 120 138 147 150 140 137 108 207 71 86 333 211 188 184 196 156
323 325 326 326 328 330 332 336 337 338 340 291 316 280 281 230 198 207 225 208 204 208 226 185 128 144 189 115 100 68 65 71 78 68 121 136 114 87 149 25 289 239 48 197 184 169 150
318 319 321 324 324 325 327 332 333 341 337 315 309 307 289 292 224 227 277 274 101 132 171 167 178 161 157 96 92 102 7 51 27 19 61 139 129 104 148 199 303 180 194 161 173 238 179
314 318 315 319 322 321 323 327 331 331 328 327 314 302 264 297 269 297 199 8 350 106 49 80 58 127 137 109 120 157 183 169 184 86 21 51 70 128 152 163 210 250 188 181 131 297 164
310 312 310 314 317 317 317 323 329 329 327 331 303 288 306 268 271 339 204 208 164 140 112 143 167 169 10 126 125 154 193 154 162 162 166 113 62 164 162 197 286 226 165 160 110 237 137
312 309 307 312 315 314 314 318 320 327 327 326 302 260 236 241 285 339 343 11 118 161 158 177 116 67 64 140 138 183 140 200 114 149 176 156 148 169 109 96 276 148 94 173 150 53 119
311 312 309 310 312 311 312 315 320 326 323 325 291 290 241 198 321 7 48 30 6 352 126 122 263 164 180 112 72 109 126 115 152 190 213 178 174 169 172 162 16 4 23 83 111 126 117